Погода в Больших Голубочках

Россия / Тульская область     53°31′43″N   36°21′03″E
темп.,
°C
ветер,
м/с
пор.,
м/с
влажн.,
%
обл.,
%
осадки,
мм/ч
давл.,
гПа
погр.,
м
5 марта, пт
пт500:00−2з51094100 0.0 1003402
03:00−5ссз479599 0.1 1006183
06:00−7зсз359581 0.0 1008100
09:00−7сз249441 0.0 1010109
12:00−3сз248959 0.0 1011428
15:00−2сз238275 0.2 1012661
18:00−5зсз118682 0.2 101421
21:00−8сз118777 0.2 101521
6 марта, сб
сб600:00−9зюз128929 0.0 101621
03:00−8юз239548 0.1 101734
06:00−10зюз239588 0.2 101621
09:00−8сз359594 0.3 1018253
12:00−5ссз688999 0.1 1018686
15:00−4ссз578089 0.1 1018894
18:00−8зсз23840 0.0 101821
21:00−9з348510 0.0 101952
7 марта, вс
вс700:00−10зюз479016 0.0 1018115
03:00−10юз512898 0.0 1016211
06:00−9юз7148855 0.0 1012431
09:00−6юз9178278 0.0 1008752
12:00−3юз121991100 0.4 10021161
15:00−1зсз121695100 1.8 10011263
18:00−7з4107365 0.3 1004174
21:00−9зюз5127832 0.3 1005223
8 марта, пн
пн800:00−9юз614770 0.0 1003300
03:00−7юз7158817 0.0 1001483
06:00−5з6139051 0.1 1000797
09:00−8зсз6118463 0.2 1002659
12:00−7зсз7117466 0.1 10051448
15:00−6зсз6107233 0.1 10071304
18:00−7з498338 0.0 1009274
21:00−10з478953 0.0 1011126
9 марта, вт
вт900:00−10з359547 0.0 101286
03:00−11сз239664 0.1 101336
06:00−13ссз379597 0.0 1014186
09:00−13ссз479298 0.1 1016427
12:00−12ссз4787100 0.0 1017595
15:00−10сз578399 0.0 1018629
18:00−12ссз238611 0.0 101924
21:00−12з238624 0.0 102030